Weather History for Wichita, KS

Change the Weather History Date:

Tuesday, June 11, 2013

  Actual Average Record
Temperature  
Mean Temperature 84 °F 74 °F  
Max Temperature 97 °F 85 °F 104 °F (1953)
Min Temperature 70 °F 64 °F 47 °F (1903)
Degree Days  
Heating Degree Days 0 0  
Month to date heating degree days 3 3  
Since 1 June heating degree days 3 3  
Since 1 July heating degree days 4477 4591  
Cooling Degree Days 19 10  
Month to date cooling degree days 76 90  
Year to date cooling degree days 214 226  
Since 1 June cooling degree days 76 90  
Growing Degree Days 34 (Base 50)    
Moisture  
Dew Point 62 °F    
Average Humidity 53    
Maximum Humidity 79    
Minimum Humidity 27    
Precipitation  
Precipitation 0.00 in 0.17 in 3.18 in (1970)
Month to date precipitation 0.59 1.99  
Year to date precipitation 14.61 13.85  
Snow  
Snow 0.00 in 0.00 in 0.00 in (2007)
Month to date snowfall 0.0 0.0  
Since 1 June snowfall 0.0 0.0  
Since 1 July snowfall 30.0 14.9  
Snow Depth 0.00 in    
Sea Level Pressure  
Sea Level Pressure 29.78 in    
Wind  
Wind Speed 19 mph (South)    
Max Wind Speed 31 mph    
Max Gust Speed 41 mph    
Visibility 10 miles    
Events      
T = Trace of Precipitation, MM = Missing Value Source: NWS Daily Summary

Daily Weather History Graph

Daily Weather History Graph

Search for Another Location

Airport:

Trip Planner

Search our weather history database for the weather conditions in past years. The results will help you decide how hot, cold, wet, or windy it might be!

Date:

Astronomy

Jun. 11, 2013 Rise Set
Actual Time 6:07 AM CDT 8:51 PM CDT
Civil Twilight 5:36 AM CDT 9:22 PM CDT
Nautical Twilight 4:57 AM CDT 10:01 PM CDT
Astronomical Twilight 4:13 AM CDT 10:45 PM CDT
Moon 8:49 AM CDT (6/11) 10:57 PM CDT (6/11)
Length of Visible Light 15h 46m
Length of Day
14h 43m
Waxing Crescent, 8% of the Moon is Illuminated
Jun 11
Waxing Crescent
Jun 16
First Quarter
Jun 23
Full
Jun 29
Last Quarter
Jul 8
New

Hourly Weather History & Observations

Time (CDT) Temp. Heat Index Dew Point Humidity Pressure Visibility Wind Dir Wind Speed Gust Speed Precip Events Conditions
12:53 AM 77.0 °F - 66.0 °F 69% 29.78 in 10.0 mi South 15.0 mph - N/A   Partly Cloudy
1:53 AM 73.9 °F - 66.9 °F 79% 29.78 in 10.0 mi South 10.4 mph - N/A   Scattered Clouds
2:53 AM 75.0 °F - 66.0 °F 73% 29.78 in 10.0 mi South 10.4 mph - N/A   Scattered Clouds
3:53 AM 75.0 °F - 64.0 °F 69% 29.78 in 10.0 mi SSW 12.7 mph - N/A   Scattered Clouds
4:53 AM 73.0 °F - 63.0 °F 71% 29.80 in 10.0 mi South 11.5 mph - N/A   Partly Cloudy
5:53 AM 71.1 °F - 62.1 °F 73% 29.81 in 10.0 mi South 10.4 mph - N/A   Scattered Clouds
6:53 AM 71.1 °F - 61.0 °F 70% 29.82 in 10.0 mi South 11.5 mph - N/A   Scattered Clouds
7:53 AM 75.0 °F - 61.0 °F 62% 29.83 in 10.0 mi South 12.7 mph - N/A   Scattered Clouds
8:53 AM 80.1 °F 80.9 °F 60.1 °F 50% 29.83 in 10.0 mi SSW 16.1 mph - N/A   Scattered Clouds
9:53 AM 84.9 °F 84.2 °F 57.9 °F 40% 29.84 in 10.0 mi SSW 23.0 mph 34.5 mph N/A   Scattered Clouds
10:53 AM 88.0 °F 87.1 °F 59.0 °F 37% 29.83 in 10.0 mi SSW 16.1 mph 33.4 mph N/A   Scattered Clouds
11:53 AM 91.9 °F 90.6 °F 57.0 °F 31% 29.82 in 10.0 mi SSW 28.8 mph 34.5 mph N/A   Scattered Clouds
12:53 PM 93.9 °F 92.6 °F 57.0 °F 29% 29.81 in 10.0 mi South 26.5 mph 34.5 mph N/A   Mostly Cloudy
1:53 PM 95.0 °F 93.7 °F 57.0 °F 28% 29.80 in 10.0 mi South 24.2 mph 35.7 mph N/A   Mostly Cloudy
2:53 PM 96.1 °F 95.2 °F 57.9 °F 28% 29.78 in 10.0 mi SSW 20.7 mph 31.1 mph N/A   Mostly Cloudy
3:53 PM 96.1 °F 95.6 °F 59.0 °F 29% 29.76 in 10.0 mi SSW 23.0 mph 35.7 mph N/A   Partly Cloudy
4:53 PM 96.1 °F 98.3 °F 64.0 °F 35% 29.75 in 10.0 mi South 25.3 mph 34.5 mph N/A   Partly Cloudy
5:53 PM 93.9 °F 95.2 °F 63.0 °F 36% 29.73 in 10.0 mi South 28.8 mph 36.8 mph N/A   Partly Cloudy
6:53 PM 91.9 °F 94.1 °F 64.9 °F 41% 29.72 in 10.0 mi South 23.0 mph 32.2 mph N/A   Partly Cloudy
7:53 PM 88.0 °F 89.3 °F 64.0 °F 45% 29.73 in 10.0 mi South 23.0 mph 28.8 mph N/A   Partly Cloudy
8:53 PM 84.9 °F 86.1 °F 64.0 °F 49% 29.74 in 10.0 mi South 17.3 mph 26.5 mph N/A   Partly Cloudy
9:53 PM 82.0 °F 84.5 °F 66.9 °F 60% 29.75 in 10.0 mi South 19.6 mph - N/A   Partly Cloudy
10:53 PM 81.0 °F 83.8 °F 68.0 °F 65% 29.76 in 10.0 mi South 20.7 mph 27.6 mph N/A   Clear
11:53 PM 80.1 °F 82.9 °F 69.1 °F 69% 29.76 in 10.0 mi South 21.9 mph 28.8 mph N/A   Clear